| time (UTC) | temp F | wind direction | speed MPH | gust MPH | rain 1hr in | rain 24hr in | rain mn in | humidity % | barometer mb |
| 20260507101403 | 52 | 209 | 3.0 | 12.0 | 0.00 | 0.00 | 0.00 | 75 | 1009.6 |
| 20260507100904 | 52 | 204 | 2.0 | 10.0 | 0.00 | 0.00 | 0.00 | 76 | 1009.5 |
| 20260507100404 | 53 | 206 | 2.0 | 7.0 | 0.00 | 0.00 | 0.00 | 76 | 1009.4 |
| 20260507095904 | 53 | 206 | 3.0 | 10.0 | 0.00 | 0.00 | 0.00 | 77 | 1009.4 |
| 20260507095404 | 52 | 198 | 2.0 | 8.0 | 0.00 | 0.00 | 0.00 | 77 | 1009.4 |
| 20260507094904 | 52 | 202 | 4.0 | 13.0 | 0.00 | 0.00 | 0.00 | 78 | 1009.5 |
| 20260507094404 | 51 | 211 | 1.0 | 10.0 | 0.00 | 0.00 | 0.00 | 78 | 1009.5 |
| 20260507093903 | 51 | 211 | 2.0 | 7.0 | 0.00 | 0.00 | 0.00 | 77 | 1009.5 |
| 20260507093404 | 51 | 210 | 5.0 | 12.0 | 0.00 | 0.00 | 0.00 | 76 | 1009.6 |
| 20260507092903 | 51 | 200 | 4.0 | 13.0 | 0.00 | 0.00 | 0.00 | 76 | 1009.6 |
| 20260507092405 | 51 | 207 | 4.0 | 12.0 | 0.00 | 0.00 | 0.00 | 77 | 1009.7 |
| 20260507091904 | 51 | 221 | 4.0 | 10.0 | 0.00 | 0.00 | 0.00 | 77 | 1009.6 |
| 20260507091403 | 51 | 211 | 1.0 | 7.0 | 0.00 | 0.00 | 0.00 | 77 | 1009.6 |
| 20260507085904 | 52 | 213 | 5.0 | 10.0 | 0.00 | 0.00 | 0.00 | 73 | 1009.6 |
| 20260507085403 | 52 | 213 | 8.0 | 15.0 | 0.00 | 0.00 | 0.00 | 72 | 1009.6 |
| 20260507084403 | 52 | 211 | 3.0 | 12.0 | 0.00 | 0.00 | 0.00 | 74 | 1009.8 |
| 20260507083904 | 52 | 211 | 3.0 | 8.0 | 0.00 | 0.00 | 0.00 | 75 | 1009.7 |
| 20260507083403 | 52 | 209 | 5.0 | 8.0 | 0.00 | 0.00 | 0.00 | 74 | 1009.7 |
| 20260507082903 | 51 | 206 | 3.0 | 8.0 | 0.00 | 0.00 | 0.00 | 74 | 1009.8 |
| 20260507082405 | 51 | 211 | 7.0 | 12.0 | 0.00 | 0.00 | 0.00 | 74 | 1009.9 |
| 20260507081905 | 51 | 205 | 2.0 | 12.0 | 0.00 | 0.00 | 0.00 | 74 | 1009.8 |
| 20260507081404 | 51 | 208 | 4.0 | 7.0 | 0.00 | 0.00 | 0.00 | 75 | 1009.8 |
| 20260507080904 | 51 | 208 | 5.0 | 9.0 | 0.00 | 0.00 | 0.00 | 74 | 1009.8 |
| 20260507080404 | 51 | 209 | 2.0 | 8.0 | 0.00 | 0.00 | 0.00 | 75 | 1009.8 |
| 20260507075403 | 51 | 207 | 3.0 | 12.0 | 0.00 | 0.00 | 0.00 | 75 | 1009.8 |
| 20260507074903 | 51 | 213 | 3.0 | 12.0 | 0.00 | 0.00 | 0.00 | 74 | 1009.9 |
| 20260507074405 | 51 | 215 | 2.0 | 7.0 | 0.00 | 0.00 | 0.00 | 75 | 1009.8 |
| 20260507073903 | 51 | 215 | 5.0 | 16.0 | 0.00 | 0.00 | 0.00 | 74 | 1009.8 |
| 20260507073405 | 51 | 212 | 5.0 | 12.0 | 0.00 | 0.00 | 0.00 | 75 | 1009.8 |
| 20260507072904 | 51 | 215 | 7.0 | 13.0 | 0.00 | 0.00 | 0.00 | 75 | 1009.8 |
| 20260507072403 | 51 | 204 | 6.0 | 12.0 | 0.00 | 0.00 | 0.00 | 75 | 1009.8 |
| 20260507071904 | 50 | 217 | 7.0 | 13.0 | 0.00 | 0.00 | 0.00 | 75 | 1009.8 |
| 20260507071405 | 50 | 210 | 5.0 | 16.0 | 0.00 | 0.00 | 0.00 | 75 | 1009.8 |
| 20260507070904 | 50 | 209 | 5.0 | 12.0 | 0.00 | 0.00 | 0.00 | 75 | 1009.8 |
| 20260507070405 | 50 | 215 | 1.0 | 12.0 | 0.00 | 0.00 | 0.00 | 74 | 1009.8 |
| 20260507065904 | 50 | 210 | 6.0 | 14.0 | 0.00 | 0.00 | 0.00 | 74 | 1009.8 |
| 20260507065404 | 50 | 210 | 6.0 | 13.0 | 0.00 | 0.00 | 0.00 | 74 | 1009.8 |
| 20260507064904 | 50 | 220 | 6.0 | 12.0 | 0.00 | 0.00 | 0.00 | 74 | 1009.8 |
| 20260507064404 | 50 | 213 | 6.0 | 10.0 | 0.00 | 0.00 | 0.00 | 74 | 1009.8 |
| 20260507063403 | 50 | 207 | 2.0 | 7.0 | 0.00 | 0.00 | 0.00 | 73 | 1009.8 |
| 20260507062403 | 50 | 213 | 2.0 | 16.0 | 0.00 | 0.00 | 0.00 | 72 | 1009.9 |
| 20260507061904 | 50 | 206 | 5.0 | 16.0 | 0.00 | 0.00 | 0.00 | 72 | 1009.8 |
| 20260507061404 | 50 | 207 | 3.0 | 13.0 | 0.00 | 0.00 | 0.00 | 72 | 1009.8 |
| 20260507060903 | 50 | 205 | 5.0 | 12.0 | 0.00 | 0.00 | 0.00 | 71 | 1009.9 |
| 20260507060404 | 50 | 214 | 6.0 | 12.0 | 0.00 | 0.00 | 0.00 | 71 | 1009.9 |
| 20260507055903 | 50 | 207 | 5.0 | 12.0 | 0.00 | 0.00 | 0.00 | 71 | 1009.9 |
| 20260507055404 | 50 | 214 | 7.0 | 13.0 | 0.00 | 0.00 | 0.00 | 70 | 1009.9 |
| 20260507054904 | 50 | 215 | 6.0 | 14.0 | 0.00 | 0.00 | 0.00 | 70 | 1009.9 |
| 20260507054403 | 50 | 206 | 3.0 | 10.0 | 0.00 | 0.00 | 0.00 | 70 | 1009.9 |
| 20260507053904 | 50 | 149 | 5.0 | 13.0 | 0.00 | 0.00 | 0.00 | 70 | 1009.9 |
| 20260507053404 | 50 | 205 | 2.0 | 8.0 | 0.00 | 0.00 | 0.00 | 70 | 1009.9 |
| 20260507052904 | 50 | 205 | 1.0 | 7.0 | 0.00 | 0.00 | 0.00 | 69 | 1009.8 |
| 20260507052404 | 50 | 205 | 2.0 | 10.0 | 0.00 | 0.00 | 0.00 | 69 | 1009.8 |
| 20260507051903 | 50 | 201 | 3.0 | 6.0 | 0.00 | 0.00 | 0.00 | 69 | 1009.8 |
| 20260507051404 | 50 | 201 | 4.0 | 8.0 | 0.00 | 0.00 | 0.00 | 69 | 1009.8 |
| 20260507050904 | 50 | 200 | 3.0 | 6.0 | 0.00 | 0.00 | 0.00 | 69 | 1009.9 |
| 20260507045904 | 50 | 200 | 2.0 | 7.0 | 0.00 | 0.00 | 0.00 | 69 | 1009.9 |
| 20260507045405 | 50 | 200 | 3.0 | 8.0 | 0.00 | 0.00 | 0.00 | 69 | 1009.9 |
| 20260507044904 | 50 | 188 | 3.0 | 7.0 | 0.00 | 0.00 | 0.00 | 69 | 1009.8 |
| 20260507043905 | 50 | 207 | 3.0 | 7.0 | 0.00 | 0.00 | 0.00 | 69 | 1009.9 |
| 20260507043404 | 50 | 207 | 5.0 | 10.0 | 0.00 | 0.00 | 0.00 | 69 | 1009.9 |
| 20260507042403 | 50 | 215 | 5.0 | 12.0 | 0.00 | 0.00 | 0.00 | 69 | 1009.9 |
| 20260507041405 | 50 | 222 | 5.0 | 9.0 | 0.00 | 0.00 | 0.00 | 69 | 1010.0 |
| 20260507040905 | 50 | 208 | 5.0 | 9.0 | 0.00 | 0.00 | 0.00 | 69 | 1010.0 |
| 20260507035903 | 50 | 218 | 3.0 | 8.0 | 0.00 | 0.00 | 0.00 | 68 | 1009.9 |
| 20260507035404 | 50 | 222 | 3.0 | 10.0 | 0.00 | 0.00 | 0.00 | 68 | 1010.0 |
| 20260507034904 | 50 | 198 | 2.0 | 6.0 | 0.00 | 0.00 | 0.00 | 68 | 1009.9 |
| 20260507034405 | 50 | 198 | 3.0 | 10.0 | 0.00 | 0.00 | 0.00 | 67 | 1010.0 |
| 20260507033904 | 49 | 200 | 3.0 | 10.0 | 0.00 | 0.00 | 0.00 | 69 | 1010.1 |
| 20260507033404 | 49 | 208 | 5.0 | 12.0 | 0.00 | 0.00 | 0.00 | 68 | 1010.1 |
| 20260507032905 | 49 | 217 | 5.0 | 9.0 | 0.00 | 0.00 | 0.00 | 69 | 1010.1 |
| 20260507032405 | 49 | 213 | 3.0 | 9.0 | 0.00 | 0.00 | 0.00 | 68 | 1010.2 |
| 20260507030903 | 49 | 208 | 3.0 | 7.0 | 0.00 | 0.00 | 0.00 | 70 | 1010.3 |
| 20260507030404 | 49 | 217 | 3.0 | 10.0 | 0.00 | 0.00 | 0.00 | 70 | 1010.4 |
| 20260507025904 | 48 | 208 | 2.0 | 7.0 | 0.00 | 0.00 | 0.00 | 71 | 1010.5 |
| 20260507024405 | 48 | 207 | 1.0 | 7.0 | 0.00 | 0.00 | 0.00 | 71 | 1010.5 |
| 20260507023906 | 48 | 207 | 2.0 | 7.0 | 0.00 | 0.00 | 0.00 | 72 | 1010.5 |
| 20260507023404 | 48 | 207 | 1.0 | 7.0 | 0.00 | 0.00 | 0.00 | 73 | 1010.6 |
| 20260507022903 | 48 | 207 | 2.0 | 8.0 | 0.00 | 0.00 | 0.00 | 74 | 1010.7 |
| 20260507022404 | 48 | 207 | 1.0 | 3.0 | 0.00 | 0.00 | 0.00 | 76 | 1010.7 |
| 20260507021905 | 48 | 207 | 1.0 | 5.0 | 0.00 | 0.00 | 0.00 | 75 | 1010.7 |
| 20260507021404 | 48 | 207 | 0.0 | 0.0 | 0.00 | 0.00 | 0.00 | 75 | 1010.8 |
| 20260507020905 | 48 | 207 | 0.0 | 3.0 | 0.00 | 0.00 | 0.00 | 75 | 1010.8 |
| 20260507015905 | 48 | 207 | 0.0 | 0.0 | 0.00 | 0.00 | 0.00 | 75 | 1011.0 |
| 20260507015405 | 48 | 207 | 1.0 | 3.0 | 0.00 | 0.00 | 0.00 | 75 | 1010.9 |
| 20260507014904 | 48 | 207 | 2.0 | 6.0 | 0.00 | 0.00 | 0.00 | 75 | 1011.0 |
| 20260507014405 | 48 | 207 | 1.0 | 5.0 | 0.00 | 0.00 | 0.00 | 76 | 1011.0 |
| 20260507013904 | 48 | 207 | 0.0 | 6.0 | 0.00 | 0.00 | 0.00 | 76 | 1011.0 |
| 20260507013405 | 48 | 207 | 2.0 | 5.0 | 0.00 | 0.00 | 0.00 | 75 | 1011.0 |
| 20260507012905 | 48 | 207 | 2.0 | 6.0 | 0.00 | 0.00 | 0.00 | 76 | 1011.1 |
| 20260507012404 | 48 | 207 | 1.0 | 5.0 | 0.00 | 0.00 | 0.00 | 75 | 1011.1 |
| 20260507011904 | 48 | 207 | 1.0 | 6.0 | 0.00 | 0.00 | 0.00 | 75 | 1011.2 |
| 20260507011405 | 48 | 207 | 3.0 | 7.0 | 0.00 | 0.00 | 0.00 | 74 | 1011.2 |
| 20260507010904 | 48 | 207 | 6.0 | 12.0 | 0.00 | 0.00 | 0.00 | 75 | 1011.1 |
| 20260507010404 | 48 | 265 | 1.0 | 9.0 | 0.00 | 0.00 | 0.00 | 75 | 1011.2 |
| 20260507005904 | 48 | 225 | 2.0 | 8.0 | 0.00 | 0.00 | 0.00 | 74 | 1011.2 |
| 20260507005404 | 48 | 221 | 2.0 | 6.0 | 0.00 | 0.00 | 0.00 | 71 | 1011.2 |
| 20260507004404 | 48 | 220 | 1.0 | 5.0 | 0.00 | 0.00 | 0.00 | 72 | 1011.2 |
| 20260507003403 | 47 | 220 | 1.0 | 6.0 | 0.00 | 0.00 | 0.00 | 73 | 1011.3 |
| 20260507002904 | 47 | 221 | 3.0 | 7.0 | 0.00 | 0.00 | 0.00 | 73 | 1011.2 |
| 20260507002404 | 47 | 221 | 1.0 | 2.0 | 0.00 | 0.00 | 0.00 | 75 | 1011.1 |
| 20260507001904 | 47 | 221 | 0.0 | 2.0 | 0.00 | 0.00 | 0.00 | 77 | 1011.4 |
| 20260507001405 | 47 | 221 | 1.0 | 3.0 | 0.00 | 0.00 | 0.00 | 77 | 1011.3 |
| 20260507000904 | 47 | 221 | 0.0 | 1.0 | 0.00 | 0.00 | 0.00 | 77 | 1011.3 |
| 20260507000405 | 47 | 221 | 0.0 | 3.0 | 0.00 | 0.00 | 0.00 | 77 | 1011.4 |
| 20260506235904 | 47 | 221 | 2.0 | 8.0 | 0.00 | 0.00 | 0.00 | 77 | 1011.3 |
| 20260506235404 | 47 | 213 | 2.0 | 5.0 | 0.00 | 0.00 | 0.00 | 76 | 1011.4 |
| 20260506234903 | 47 | 213 | 1.0 | 3.0 | 0.00 | 0.00 | 0.00 | 77 | 1011.5 |
| 20260506234405 | 47 | 213 | 2.0 | 6.0 | 0.00 | 0.00 | 0.00 | 77 | 1011.6 |
| 20260506233404 | 47 | 213 | 3.0 | 7.0 | 0.00 | 0.00 | 0.00 | 78 | 1011.7 |
| 20260506232904 | 47 | 213 | 1.0 | 5.0 | 0.00 | 0.00 | 0.00 | 79 | 1011.7 |
| 20260506231905 | 46 | 213 | 0.0 | 3.0 | 0.00 | 0.00 | 0.00 | 80 | 1011.7 |
| 20260506231404 | 46 | 213 | 0.0 | 0.0 | 0.00 | 0.00 | 0.00 | 80 | 1011.6 |
| 20260506230904 | 46 | 213 | 0.0 | 0.0 | 0.00 | 0.00 | 0.00 | 80 | 1011.6 |
| 20260506230404 | 46 | 213 | 0.0 | 0.0 | 0.00 | 0.00 | 0.00 | 80 | 1011.6 |
| 20260506225903 | 46 | 213 | 0.0 | 0.0 | 0.00 | 0.00 | 0.00 | 80 | 1011.7 |
| 20260506225406 | 46 | 213 | 0.0 | 0.0 | 0.00 | 0.00 | 0.00 | 80 | 1011.7 |
| 20260506224904 | 46 | 213 | 0.0 | 3.0 | 0.00 | 0.00 | 0.00 | 80 | 1011.7 |
| 20260506223405 | 46 | 213 | 0.0 | 0.0 | 0.00 | 0.00 | 0.00 | 81 | 1011.8 |
| 20260506222904 | 46 | 213 | 0.0 | 0.0 | 0.00 | 0.00 | 0.00 | 81 | 1011.8 |
| 20260506222405 | 46 | 213 | 1.0 | 3.0 | 0.00 | 0.00 | 0.00 | 81 | 1011.9 |
| 20260506221904 | 46 | 213 | 0.0 | 0.0 | 0.00 | 0.00 | 0.00 | 80 | 1011.9 |
| 20260506220904 | 47 | 213 | 0.0 | 0.0 | 0.00 | 0.00 | 0.00 | 79 | 1011.9 |
| 20260506215905 | 47 | 213 | 0.0 | 0.0 | 0.00 | 0.00 | 0.00 | 78 | 1011.9 |
| 20260506215405 | 47 | 213 | 0.0 | 0.0 | 0.00 | 0.00 | 0.00 | 78 | 1012.0 |
| 20260506214404 | 47 | 213 | 0.0 | 0.0 | 0.00 | 0.00 | 0.00 | 77 | 1011.9 |
| 20260506213405 | 47 | 213 | 0.0 | 0.0 | 0.00 | 0.00 | 0.00 | 77 | 1011.9 |
| 20260506212904 | 48 | 213 | 0.0 | 1.0 | 0.00 | 0.00 | 0.00 | 77 | 1011.9 |
| 20260506212404 | 48 | 213 | 0.0 | 0.0 | 0.00 | 0.00 | 0.00 | 77 | 1012.0 |
| 20260506211904 | 48 | 213 | 0.0 | 0.0 | 0.00 | 0.00 | 0.00 | 76 | 1012.2 |
| 20260506211404 | 48 | 213 | 0.0 | 0.0 | 0.00 | 0.00 | 0.00 | 76 | 1012.2 |
| 20260506210904 | 48 | 213 | 0.0 | 0.0 | 0.00 | 0.00 | 0.00 | 75 | 1012.2 |
| 20260506210405 | 48 | 213 | 0.0 | 0.0 | 0.00 | 0.00 | 0.00 | 75 | 1012.1 |
| 20260506205904 | 48 | 213 | 0.0 | 0.0 | 0.00 | 0.00 | 0.00 | 74 | 1012.1 |
| 20260506205404 | 48 | 213 | 0.0 | 0.0 | 0.00 | 0.00 | 0.00 | 75 | 1012.1 |
| 20260506204904 | 48 | 213 | 0.0 | 0.0 | 0.00 | 0.00 | 0.00 | 75 | 1012.2 |
| 20260506204405 | 48 | 213 | 1.0 | 3.0 | 0.00 | 0.00 | 0.00 | 75 | 1012.1 |
| 20260506203904 | 48 | 213 | 0.0 | 3.0 | 0.00 | 0.00 | 0.00 | 74 | 1012.1 |
| 20260506203404 | 48 | 213 | 1.0 | 3.0 | 0.00 | 0.00 | 0.00 | 74 | 1012.2 |
| 20260506202904 | 48 | 213 | 1.0 | 3.0 | 0.00 | 0.00 | 0.00 | 74 | 1012.1 |
| 20260506202404 | 48 | 213 | 2.0 | 3.0 | 0.00 | 0.00 | 0.00 | 73 | 1012.2 |
| 20260506201905 | 48 | 213 | 0.0 | 1.0 | 0.00 | 0.00 | 0.00 | 74 | 1012.2 |
| 20260506201404 | 48 | 213 | 1.0 | 3.0 | 0.00 | 0.00 | 0.00 | 74 | 1012.2 |
| 20260506200904 | 49 | 213 | 0.0 | 0.0 | 0.00 | 0.00 | 0.00 | 74 | 1012.1 |
| 20260506200404 | 49 | 213 | 0.0 | 0.0 | 0.00 | 0.00 | 0.00 | 74 | 1012.1 |
| 20260506195905 | 49 | 213 | 0.0 | 0.0 | 0.00 | 0.00 | 0.00 | 74 | 1012.1 |
| 20260506195405 | 49 | 213 | 0.0 | 0.0 | 0.00 | 0.00 | 0.00 | 73 | 1012.2 |
| 20260506194904 | 49 | 213 | 0.0 | 2.0 | 0.00 | 0.00 | 0.00 | 73 | 1012.3 |
| 20260506194404 | 49 | 213 | 0.0 | 1.0 | 0.00 | 0.00 | 0.00 | 73 | 1012.3 |
| 20260506193904 | 49 | 213 | 0.0 | 3.0 | 0.00 | 0.00 | 0.00 | 73 | 1012.3 |
| 20260506193404 | 49 | 213 | 1.0 | 3.0 | 0.00 | 0.00 | 0.00 | 73 | 1012.3 |
| 20260506192904 | 49 | 213 | 0.0 | 6.0 | 0.00 | 0.00 | 0.00 | 73 | 1012.4 |
| 20260506192404 | 49 | 213 | 1.0 | 3.0 | 0.00 | 0.00 | 0.00 | 74 | 1012.4 |
| 20260506191904 | 50 | 213 | 0.0 | 3.0 | 0.00 | 0.00 | 0.00 | 73 | 1012.5 |
| 20260506191404 | 50 | 213 | 1.0 | 3.0 | 0.00 | 0.00 | 0.00 | 73 | 1012.5 |
| 20260506190904 | 50 | 213 | 1.0 | 3.0 | 0.00 | 0.00 | 0.00 | 73 | 1012.6 |
| 20260506190404 | 50 | 213 | 1.0 | 3.0 | 0.00 | 0.00 | 0.00 | 73 | 1012.6 |
| 20260506185405 | 50 | 213 | 0.0 | 3.0 | 0.00 | 0.00 | 0.00 | 74 | 1012.6 |
| 20260506184904 | 50 | 213 | 0.0 | 0.0 | 0.00 | 0.00 | 0.00 | 73 | 1012.6 |
| 20260506183905 | 50 | 213 | 2.0 | 5.0 | 0.00 | 0.00 | 0.00 | 71 | 1012.5 |
| 20260506183404 | 50 | 213 | 1.0 | 3.0 | 0.00 | 0.00 | 0.00 | 70 | 1012.5 |
| 20260506182904 | 51 | 213 | 1.0 | 5.0 | 0.00 | 0.00 | 0.00 | 68 | 1012.5 |
| 20260506182404 | 51 | 213 | 2.0 | 6.0 | 0.00 | 0.00 | 0.00 | 67 | 1012.4 |
| 20260506181904 | 51 | 213 | 3.0 | 6.0 | 0.00 | 0.00 | 0.00 | 66 | 1012.4 |
| 20260506181404 | 51 | 213 | 3.0 | 5.0 | 0.00 | 0.00 | 0.00 | 65 | 1012.4 |
| 20260506180404 | 51 | 213 | 3.0 | 5.0 | 0.00 | 0.00 | 0.00 | 65 | 1012.5 |
| 20260506175905 | 51 | 213 | 4.0 | 8.0 | 0.00 | 0.00 | 0.00 | 65 | 1012.5 |
| 20260506175404 | 51 | 213 | 4.0 | 7.0 | 0.00 | 0.00 | 0.00 | 64 | 1012.6 |
| 20260506174906 | 52 | 213 | 5.0 | 8.0 | 0.00 | 0.00 | 0.00 | 64 | 1012.5 |
| 20260506174404 | 52 | 219 | 3.0 | 7.0 | 0.00 | 0.00 | 0.00 | 65 | 1012.5 |
| 20260506173906 | 52 | 219 | 3.0 | 7.0 | 0.00 | 0.00 | 0.00 | 65 | 1012.4 |
| 20260506173404 | 52 | 219 | 3.0 | 9.0 | 0.00 | 0.00 | 0.00 | 64 | 1012.4 |
| 20260506172906 | 53 | 221 | 4.0 | 10.0 | 0.00 | 0.00 | 0.00 | 65 | 1012.3 |
| 20260506172404 | 52 | 224 | 3.0 | 10.0 | 0.00 | 0.00 | 0.00 | 65 | 1012.3 |
| 20260506171905 | 52 | 210 | 2.0 | 7.0 | 0.00 | 0.00 | 0.00 | 67 | 1012.3 |
| 20260506171406 | 52 | 209 | 3.0 | 6.0 | 0.00 | 0.00 | 0.00 | 66 | 1012.3 |
| 20260506170904 | 52 | 209 | 3.0 | 7.0 | 0.00 | 0.00 | 0.00 | 67 | 1012.3 |
| 20260506170404 | 52 | 209 | 3.0 | 7.0 | 0.00 | 0.00 | 0.00 | 67 | 1012.4 |
| 20260506165905 | 52 | 209 | 3.0 | 7.0 | 0.00 | 0.00 | 0.00 | 67 | 1012.4 |
| 20260506165405 | 52 | 216 | 3.0 | 7.0 | 0.00 | 0.00 | 0.00 | 67 | 1012.5 |
| 20260506164905 | 52 | 216 | 2.0 | 6.0 | 0.00 | 0.00 | 0.00 | 64 | 1012.7 |
| 20260506164406 | 52 | 216 | 3.0 | 7.0 | 0.00 | 0.00 | 0.00 | 62 | 1012.8 |
| 20260506163904 | 52 | 216 | 2.0 | 6.0 | 0.00 | 0.00 | 0.00 | 65 | 1012.8 |
| 20260506163405 | 52 | 216 | 0.0 | 3.0 | 0.00 | 0.00 | 0.00 | 66 | 1012.8 |
| 20260506162904 | 52 | 216 | 0.0 | 5.0 | 0.00 | 0.00 | 0.00 | 64 | 1012.7 |
| 20260506162406 | 53 | 216 | 1.0 | 6.0 | 0.00 | 0.00 | 0.00 | 62 | 1012.8 |
| 20260506161905 | 53 | 216 | 2.0 | 6.0 | 0.00 | 0.00 | 0.00 | 62 | 1013.0 |
| 20260506161405 | 53 | 216 | 4.0 | 8.0 | 0.00 | 0.00 | 0.00 | 60 | 1013.0 |
| 20260506160904 | 53 | 216 | 3.0 | 7.0 | 0.00 | 0.00 | 0.00 | 60 | 1013.0 |
| 20260506160404 | 53 | 216 | 4.0 | 7.0 | 0.00 | 0.00 | 0.00 | 59 | 1013.1 |
| 20260506155404 | 54 | 216 | 5.0 | 8.0 | 0.00 | 0.00 | 0.00 | 56 | 1013.1 |
| 20260506154905 | 54 | 216 | 4.0 | 8.0 | 0.00 | 0.00 | 0.00 | 55 | 1013.1 |
| 20260506154405 | 54 | 215 | 3.0 | 9.0 | 0.00 | 0.00 | 0.00 | 56 | 1013.2 |
| 20260506153904 | 54 | 213 | 4.0 | 7.0 | 0.00 | 0.00 | 0.00 | 56 | 1013.2 |
| 20260506152904 | 54 | 213 | 3.0 | 6.0 | 0.00 | 0.00 | 0.00 | 54 | 1013.3 |
| 20260506152405 | 54 | 213 | 4.0 | 7.0 | 0.00 | 0.00 | 0.00 | 54 | 1013.3 |
| 20260506151904 | 54 | 213 | 3.0 | 6.0 | 0.00 | 0.00 | 0.00 | 53 | 1013.3 |
| 20260506150905 | 55 | 213 | 1.0 | 6.0 | 0.00 | 0.00 | 0.00 | 53 | 1013.4 |
| 20260506150404 | 55 | 213 | 3.0 | 5.0 | 0.00 | 0.00 | 0.00 | 52 | 1013.4 |
| 20260506145905 | 55 | 213 | 2.0 | 6.0 | 0.00 | 0.00 | 0.00 | 52 | 1013.5 |
| 20260506145405 | 55 | 213 | 3.0 | 6.0 | 0.00 | 0.00 | 0.00 | 52 | 1013.5 |
| 20260506144905 | 55 | 213 | 2.0 | 5.0 | 0.00 | 0.00 | 0.00 | 53 | 1013.5 |
| 20260506144404 | 55 | 213 | 2.0 | 7.0 | 0.00 | 0.00 | 0.00 | 56 | 1013.4 |
| 20260506143904 | 53 | 213 | 5.0 | 9.0 | 0.00 | 0.00 | 0.00 | 57 | 1013.5 |
| 20260506143406 | 53 | 215 | 4.0 | 10.0 | 0.00 | 0.00 | 0.00 | 56 | 1013.6 |
| 20260506142905 | 53 | 218 | 4.0 | 10.0 | 0.00 | 0.00 | 0.00 | 55 | 1013.6 |
| 20260506142404 | 53 | 211 | 2.0 | 6.0 | 0.00 | 0.00 | 0.00 | 55 | 1013.5 |
| 20260506141906 | 53 | 211 | 2.0 | 6.0 | 0.00 | 0.00 | 0.00 | 54 | 1013.7 |
| 20260506140905 | 53 | 211 | 4.0 | 7.0 | 0.00 | 0.00 | 0.00 | 55 | 1013.8 |
| 20260506140405 | 54 | 212 | 5.0 | 8.0 | 0.00 | 0.00 | 0.00 | 55 | 1013.8 |
| 20260506135904 | 54 | 211 | 5.0 | 9.0 | 0.00 | 0.00 | 0.00 | 54 | 1013.9 |
| 20260506135405 | 55 | 207 | 5.0 | 7.0 | 0.00 | 0.00 | 0.00 | 53 | 1013.9 |
| 20260506134904 | 55 | 207 | 6.0 | 9.0 | 0.00 | 0.00 | 0.00 | 52 | 1014.0 |
| 20260506134405 | 56 | 211 | 5.0 | 8.0 | 0.00 | 0.00 | 0.00 | 49 | 1014.1 |
| 20260506133906 | 57 | 211 | 5.0 | 7.0 | 0.00 | 0.00 | 0.00 | 51 | 1014.0 |
| 20260506133404 | 57 | 211 | 6.0 | 8.0 | 0.00 | 0.00 | 0.00 | 50 | 1014.1 |
| 20260506132905 | 57 | 211 | 4.0 | 7.0 | 0.00 | 0.00 | 0.00 | 53 | 1014.2 |
| 20260506132404 | 57 | 211 | 6.0 | 7.0 | 0.00 | 0.00 | 0.00 | 52 | 1014.2 |
| 20260506131904 | 56 | 204 | 5.0 | 9.0 | 0.00 | 0.00 | 0.00 | 53 | 1014.3 |
| 20260506131404 | 56 | 278 | 2.0 | 6.0 | 0.00 | 0.00 | 0.00 | 55 | 1014.3 |
| 20260506130904 | 56 | 280 | 2.0 | 8.0 | 0.00 | 0.00 | 0.00 | 53 | 1014.3 |
| 20260506130404 | 56 | 280 | 2.0 | 6.0 | 0.00 | 0.00 | 0.00 | 56 | 1014.3 |
| 20260506125905 | 55 | 280 | 3.0 | 7.0 | 0.00 | 0.00 | 0.00 | 54 | 1014.3 |
| 20260506125404 | 55 | 279 | 2.0 | 6.0 | 0.00 | 0.00 | 0.00 | 54 | 1014.4 |
| 20260506123904 | 56 | 281 | 2.0 | 6.0 | 0.00 | 0.00 | 0.00 | 53 | 1014.5 |
| 20260506123404 | 56 | 283 | 2.0 | 8.0 | 0.00 | 0.00 | 0.00 | 55 | 1014.5 |
| 20260506122405 | 56 | 284 | 3.0 | 7.0 | 0.00 | 0.00 | 0.00 | 52 | 1014.7 |
| 20260506121904 | 56 | 284 | 3.0 | 5.0 | 0.00 | 0.00 | 0.00 | 52 | 1014.8 |
| 20260506120404 | 56 | 286 | 2.0 | 5.0 | 0.00 | 0.00 | 0.00 | 52 | 1014.8 |
| 20260506115905 | 55 | 286 | 2.0 | 5.0 | 0.00 | 0.00 | 0.00 | 52 | 1014.8 |
| 20260506115405 | 55 | 286 | 1.0 | 6.0 | 0.00 | 0.00 | 0.00 | 52 | 1014.9 |
| 20260506114905 | 55 | 286 | 1.0 | 7.0 | 0.00 | 0.00 | 0.00 | 55 | 1014.9 |
| 20260506114405 | 55 | 289 | 3.0 | 9.0 | 0.00 | 0.00 | 0.00 | 53 | 1014.9 |
| 20260506113906 | 55 | 261 | 3.0 | 7.0 | 0.00 | 0.00 | 0.00 | 52 | 1014.9 |
| 20260506112904 | 55 | 233 | 2.0 | 6.0 | 0.00 | 0.00 | 0.00 | 55 | 1014.9 |
| 20260506112404 | 55 | 234 | 3.0 | 6.0 | 0.00 | 0.00 | 0.00 | 54 | 1014.9 |
| 20260506111404 | 54 | 234 | 1.0 | 6.0 | 0.00 | 0.00 | 0.00 | 57 | 1015.1 |
| 20260506110904 | 54 | 234 | 3.0 | 8.0 | 0.00 | 0.00 | 0.00 | 58 | 1015.1 |
| 20260506110404 | 54 | 239 | 3.0 | 8.0 | 0.00 | 0.00 | 0.00 | 58 | 1015.2 |
| 20260506105904 | 53 | 275 | 3.0 | 7.0 | 0.00 | 0.00 | 0.00 | 59 | 1015.2 |
| 20260506105405 | 53 | 261 | 1.0 | 3.0 | 0.00 | 0.00 | 0.00 | 58 | 1015.2 |
| 20260506104904 | 53 | 261 | 2.0 | 7.0 | 0.00 | 0.00 | 0.00 | 60 | 1015.3 |
| 20260506104405 | 52 | 264 | 2.0 | 6.0 | 0.00 | 0.00 | 0.00 | 59 | 1015.3 |
| 20260506103904 | 52 | 266 | 2.0 | 7.0 | 0.00 | 0.00 | 0.00 | 61 | 1015.3 |
| 20260506103404 | 52 | 288 | 2.0 | 7.0 | 0.00 | 0.00 | 0.00 | 60 | 1015.3 |
| 20260506102904 | 51 | 289 | 0.0 | 3.0 | 0.00 | 0.00 | 0.00 | 62 | 1015.4 |
| 20260506102405 | 51 | 289 | 1.0 | 6.0 | 0.00 | 0.00 | 0.00 | 61 | 1015.4 |
| 20260506101905 | 51 | 290 | 2.0 | 6.0 | 0.00 | 0.00 | 0.00 | 64 | 1015.5 |